This demonstration page uses our WeatherBlox Daily Observations layout. Learn more.

Left ArrowRight Arrow

38.20091, -84.87328

Hourly Observations for January 27, 2016

Temp ( °F °C ) Dew Point ( °F °C ) Humidity (%) Winds ( mph kmh ) Pressure ( in mb ) Visibility ( mi km ) Precip ( " mm )
12:53 am 00:53 Cloudy 30 -1.1 22 -5.6 72 72 NW 7 11 30.27 1025 10 16 0.00 0.00
1:53 am 01:53 Cloudy 31 -0.6 20 -6.7 64 64 WNW 10 17 30.27 1025 10 16 0.00 0.00
2:53 am 02:53 Cloudy 31 -0.6 19 -7.2 61 61 VRB 6 9 30.28 1025 10 16 0.00 0.00
3:53 am 03:53 Cloudy 31 -0.6 20 -6.7 64 64 VRB 3 6 30.28 1025 10 16 0.00 0.00
4:53 am 04:53 Cloudy 31 -0.6 21 -6.1 67 67 NW 3 6 30.28 1026 10 16 0.00 0.00
5:53 am 05:53 Cloudy 30 -1.1 21 -6.1 69 69 NW 7 11 30.30 1026 10 16 0.00 0.00
6:53 am 06:53 Cloudy 29 -1.7 19 -7.2 66 66 NW 6 9 30.32 1027 10 16 0.00 0.00
7:53 am 07:53 Cloudy 29 -1.7 19 -7.2 66 66 NNW 3 6 30.34 1027 10 16 0.00 0.00
8:53 am 08:53 Cloudy 29 -1.7 19 -7.2 66 66 NNE 6 9 30.34 1027 10 16 0.00 0.00
9:53 am 09:53 Cloudy 29 -1.7 18 -7.8 63 63 N 3 6 30.34 1027 10 16 0.00 0.00
10:53 am 10:53 Cloudy 30 -1.1 19 -7.2 64 64 Calm 30.34 1027 10 16 0.00 0.00
11:53 am 11:53 Cloudy 31 -0.6 19 -7.2 61 61 Calm 30.32 1027 10 16 0.00 0.00
12:42 pm 12:42 Partly Cloudy 32 0 19 -7.2 59 59 SSE 3 6 30.33 1027 10 16 0.00 0.00
12:53 pm 12:53 Mostly Sunny 33 0.6 19 -7.2 56 56 SW 5 7 30.29 1026 10 16 0.00 0.00
1:20 pm 13:20 Mostly Cloudy 32 0 19 -7.2 59 59 S 7 11 30.30 1026 10 16 0.00 0.00
1:53 pm 13:53 Cloudy 32 0 19 -7.2 59 59 Calm 30.25 1024 10 16 0.00 0.00
2:53 pm 14:53 Mostly Cloudy 34 1.1 20 -6.7 56 56 VRB 5 7 30.22 1023 10 16 0.00 0.00
3:37 pm 15:37 Partly Cloudy 34 1.1 20 -6.7 56 56 WSW 7 11 30.24 1024 10 16 0.00 0.00
3:53 pm 15:53 Partly Cloudy 34 1.1 20 -6.7 56 56 SW 7 11 30.21 1023 10 16 0.00 0.00
4:53 pm 16:53 Sunny 33 0.6 19 -7.2 56 56 SSE 3 6 30.19 1023 10 16 0.00 0.00
5:53 pm 17:53 Sunny 31 -0.6 20 -6.7 64 64 SW 3 6 30.19 1023 10 16 0.00 0.00
6:53 pm 18:53 Clear 28 -2.2 19 -7.2 69 69 W 3 6 30.20 1023 10 16 0.00 0.00
7:53 pm 19:53 Clear 27 -2.8 18 -7.8 69 69 SSW 3 6 30.18 1022 10 16 0.00 0.00
8:53 pm 20:53 Clear 24 -4.4 18 -7.8 77 77 Calm 30.16 1021 10 16 0.00 0.00
9:53 pm 21:53 Clear 23 -5 17 -8.3 78 78 Calm 30.15 1021 10 16 0.00 0.00
10:53 pm 22:53 Clear 21 -6.1 16 -8.9 81 81 Calm 30.13 1020 10 16 0.00 0.00
11:53 pm 23:53 Clear 21 -6.1 16 -8.9 81 81 Calm 30.11 1020 10 16 0.00 0.00

Powered by AerisWeather